Wind_Speed
22 23 24 22 22 23 25 24 22 22 24 22 19 19 18 17 17 16 14 14 14 13 14 13 12 11 10 9 10 10 10 9 9 8 7 6 6 5 5 4 5 6
22 23 24 23 23 23 24 23 22 22 23 22 20 19 17 16 17 18 17 16 15 14 14 14 13 12 10 8 9 10 10 10 9 8 7 6 5 5 6 5 6 7
23 23 23 23 24 24 23 23 21 22 22 22 21 20 18 17 17 18 18 18 17 16 15 15 14 13 11 10 10 10 11 11 9 8 8 7 5 6 6 6 7 8
24 24 24 23 23 22 22 23 21 21 21 22 23 22 20 19 19 18 17 19 19 17 16 16 15 14 13 12 12 11 11 12 10 9 9 9 7 7 8 8 8 8
25 25 24 22 23 22 21 22 22 22 22 21 22 23 22 21 21 18 17 19 19 17 16 16 16 15 14 14 14 12 11 12 11 10 10 10 9 8 9 10 9 8
26 26 25 23 23 23 22 23 23 22 23 22 21 21 21 22 22 21 19 19 19 17 16 16 15 15 14 14 15 14 13 12 11 10 10 10 10 10 9 9 9 8
27 26 26 24 23 23 23 23 23 23 22 21 22 22 21 22 22 21 20 20 20 19 17 16 15 15 14 14 14 14 14 13 12 12 11 10 10 11 11 10 10 9
28 27 27 26 25 25 24 24 24 23 22 22 23 23 22 23 22 21 21 21 21 20 19 17 16 16 15 15 15 15 15 14 13 12 12 11 11 11 11 10 10 10
28 28 28 27 27 27 26 26 25 24 23 23 23 23 22 23 22 21 21 20 20 20 20 19 18 17 17 16 17 16 16 14 13 13 13 13 11 11 12 12 11 10
29 29 29 29 29 28 28 27 26 25 24 24 24 23 23 23 22 22 22 20 20 20 19 19 19 19 18 18 19 18 17 16 14 14 14 13 13 13 14 14 13 11
30 31 30 30 30 29 28 27 26 25 25 24 24 23 24 24 23 23 23 22 22 22 21 20 19 20 20 21 22 21 20 18 16 14 14 16 16 15 14 14 15 14
31 32 32 32 31 29 28 27 26 25 25 25 24 24 25 25 25 26 26 24 23 23 23 22 21 20 20 22 24 23 21 19 16 14 16 19 19 17 15 15 15 15
31 32 32 32 31 30 29 28 28 27 27 26 26 25 25 26 26 27 28 27 25 23 22 21 19 17 15 16 19 20 19 17 15 13 15 18 19 18 16 15 14 14
32 33 33 32 31 30 30 29 29 28 28 28 27 27 26 26 25 27 29 29 26 24 22 19 17 14 12 12 15 16 16 16 15 15 14 15 16 16 14 14 14 14
33 32 33 32 32 31 29 29 29 29 29 29 29 29 29 27 25 25 28 29 28 25 22 19 18 16 15 15 15 16 16 17 17 17 16 15 14 13 12 13 14 15
34 33 32 33 33 32 30 28 28 28 28 29 29 30 31 29 25 24 26 28 27 25 22 20 20 20 20 20 19 19 19 20 20 20 18 17 16 15 14 13 14 15
34 32 31 32 33 32 32 31 28 25 26 28 29 29 30 29 25 24 26 26 26 24 23 22 21 21 21 21 21 20 21 22 23 22 20 19 18 17 15 14 13 13
35 32 30 31 31 31 32 32 27 23 22 24 25 25 27 27 25 24 25 24 24 23 23 23 23 22 21 20 19 19 19 21 23 22 21 20 18 17 15 14 12 11
35 32 29 28 28 28 29 30 27 24 21 21 21 22 24 25 24 24 23 23 22 22 22 23 23 22 21 20 18 17 17 18 18 19 19 19 18 17 16 15 13 12
36 34 31 27 26 25 26 26 26 23 21 20 21 22 22 22 22 22 21 22 22 21 21 20 21 22 21 20 19 18 18 16 16 17 19 19 18 17 16 14 13 12
34 33 30 28 26 25 24 24 23 21 20 19 19 19 19 20 20 20 20 21 21 21 20 20 20 20 20 19 19 18 18 17 16 17 18 19 18 16 15 13 12 11
34 32 31 28 26 24 22 21 21 19 18 17 17 17 18 18 18 19 20 20 20 20 20 20 20 19 19 18 17 17 17 16 16 17 18 18 17 16 14 12 12 11
25 24 22 18 15 12 9 10 14 17 17 18 17 17 17 17 17 17 17 17 18 19 20 20 19 18 18 17 16 15 15 14 14 16 17 17 17 15 13 12 11 10
14 15 14 11 11 9 9 11 13 15 15 15 15 15 15 16 16 15 15 16 16 17 18 18 18 17 16 15 14 14 14 13 14 15 16 17 16 14 12 11 11 10
13 15 15 13 13 14 15 16 14 12 11 11 11 12 13 14 15 14 15 15 16 15 16 17 17 16 15 14 13 13 13 13 13 14 15 16 15 13 13 12 11 11
12 13 14 14 12 12 13 13 12 10 9 8 8 9 11 12 12 13 13 14 15 15 15 15 14 14 13 13 13 13 13 13 13 14 14 14 14 14 14 13 11 10
Wind_Direction
195 196 195 194 195 195 192 193 196 196 198 198 198 199 203 207 207 206 206 208 210 212 214 217 221 225 228 228 229 229 231 237 241 237 236 244 250 251 253 274 313 320
196 195 194 194 195 194 194 196 198 198 199 203 205 205 205 208 207 206 209 213 214 216 220 221 222 223 224 224 225 223 223 229 233 230 234 243 250 260 260 263 285 300
197 195 195 195 195 195 196 197 199 201 203 205 205 206 207 209 209 210 213 216 216 216 219 220 221 222 222 221 223 223 222 227 231 231 234 239 248 260 262 266 278 292
197 197 197 198 199 199 199 199 201 204 207 208 208 207 209 209 210 213 215 216 217 217 219 220 223 225 224 222 223 227 229 231 234 238 240 242 248 256 257 262 271 289
198 198 199 201 202 200 200 201 204 206 210 213 210 208 210 211 211 213 212 214 216 216 217 221 224 226 226 223 223 228 233 235 235 236 241 243 244 251 257 260 267 287
201 201 200 201 201 200 202 204 206 208 210 212 208 207 210 210 211 213 213 215 217 216 217 220 223 224 223 222 223 226 231 238 237 235 243 250 249 251 257 260 266 282
202 202 202 203 201 202 206 208 208 209 211 211 209 210 212 211 212 215 216 218 219 219 221 223 224 224 221 221 226 230 233 239 244 243 249 257 258 255 254 257 262 273
203 202 203 205 205 206 209 210 210 211 211 212 213 215 216 216 217 218 218 217 216 217 220 222 224 225 224 225 230 233 234 238 244 246 250 257 261 256 251 251 255 264
204 203 203 205 205 206 209 210 211 211 211 212 214 217 218 217 218 220 219 217 215 216 219 220 223 226 228 231 232 232 233 235 239 242 247 253 255 250 247 248 251 257
205 205 204 205 206 207 210 211 211 212 214 214 213 215 218 218 219 219 218 216 216 218 220 222 222 224 229 232 232 233 234 236 239 241 242 244 246 249 250 248 248 250
205 206 205 206 208 209 212 212 211 213 217 217 215 216 218 218 219 217 215 215 218 221 224 224 223 225 230 234 235 235 237 240 242 243 243 242 246 252 251 246 248 252
205 206 207 208 210 211 212 212 211 213 215 215 216 219 220 219 219 218 217 218 220 222 224 227 230 232 236 241 240 236 235 236 239 244 246 244 248 253 254 250 252 258
206 206 207 208 210 212 212 211 212 214 215 214 213 216 219 221 222 222 222 221 220 220 223 227 232 232 234 238 235 229 226 228 234 246 250 248 250 255 256 253 251 254
207 206 207 209 210 212 213 214 217 218 219 218 215 213 216 220 223 224 222 220 218 219 222 224 225 226 228 228 225 223 225 230 237 246 251 248 248 252 253 252 252 255
207 207 208 210 211 212 213 215 219 222 223 223 219 215 215 219 222 222 218 216 216 217 219 221 224 227 230 233 234 236 241 243 242 244 246 243 241 245 250 253 258 263
206 208 209 211 212 213 212 212 218 224 226 225 222 217 216 218 219 215 211 209 210 212 217 223 229 231 231 232 235 240 246 244 237 237 241 243 245 248 251 255 262 266
203 207 209 210 211 213 213 211 214 220 222 221 220 217 215 215 213 210 207 208 211 216 221 226 229 229 230 231 234 239 245 239 231 232 238 244 249 251 251 256 264 267
199 202 205 207 210 212 211 208 206 207 207 209 211 210 209 207 206 207 208 211 216 219 222 224 226 228 229 231 234 237 237 231 227 230 235 241 246 248 251 258 264 268
198 199 199 201 204 206 205 201 199 198 195 195 197 198 199 201 203 207 210 212 215 217 220 223 225 229 231 231 231 226 221 220 224 231 235 238 242 244 249 255 260 265
198 199 199 198 197 197 196 194 195 196 193 190 190 192 196 201 206 211 214 217 220 222 224 225 226 229 230 230 228 224 221 221 225 230 236 240 243 244 247 252 258 262
196 197 197 197 196 194 193 193 194 196 196 195 195 196 200 205 209 215 218 221 223 224 225 226 227 227 228 228 229 228 228 227 226 228 235 240 243 245 247 253 258 259
197 197 197 198 196 194 193 190 191 195 199 202 203 204 207 210 212 216 219 220 220 220 220 222 222 223 223 224 227 226 226 227 227 228 232 237 241 244 249 255 259 257
193 187 185 182 172 169 175 181 188 197 201 203 205 205 208 212 214 216 218 218 217 216 216 217 218 219 220 221 221 221 224 225 224 225 229 234 239 244 250 256 256 254
177 168 164 150 136 149 187 200 199 202 203 202 204 207 210 214 217 217 217 218 217 216 216 217 218 218 217 218 217 219 221 221 220 223 229 235 239 242 245 248 247 246
180 186 179 167 161 175 193 199 198 199 200 201 206 214 218 220 219 217 216 215 215 216 218 221 222 223 221 218 217 220 222 223 222 224 231 237 239 237 236 238 239 241
176 177 165 160 168 176 180 185 190 192 195 203 211 215 218 221 222 219 214 212 212 213 216 219 222 226 226 222 221 224 229 231 229 228 232 236 235 235 238 239 239 242
Height
829 830 831 832 833 834 835 836 837 838 839 840 841 842 843 844 845 846 846 847 848 848 849 849 850 850 851 851 851 851 852 852 852 852 852 852 853 853 853 853 853 853
828 829 830 831 832 833 834 835 836 837 838 839 840 841 842 843 844 845 846 846 847 848 848 849 849 850 850 851 851 851 851 851 852 852 852 852 852 852 852 853 853 853
827 828 829 830 831 832 833 835 836 836 838 838 839 841 841 842 843 844 845 846 846 847 848 848 849 849 850 850 851 851 851 851 851 851 851 851 851 851 851 852 852 851
826 827 828 829 830 831 833 834 835 835 836 837 838 839 840 841 842 843 844 845 845 846 847 847 848 848 849 850 850 850 850 850 850 850 850 850 850 850 850 851 851 850
825 826 827 828 829 830 831 832 833 834 835 836 837 838 839 840 841 842 842 843 844 845 845 846 847 847 848 848 849 849 849 849 850 850 849 849 849 850 850 850 849 849
824 825 826 827 828 829 830 831 832 833 833 834 835 836 837 838 839 840 841 842 843 844 844 845 846 846 847 847 848 848 848 848 848 848 848 848 848 849 849 849 849 848
822 823 824 826 827 828 829 830 831 831 832 833 834 835 836 837 838 839 839 841 841 842 843 844 845 845 846 846 846 847 847 847 847 847 847 847 847 848 848 848 848 848
820 822 823 824 825 826 827 828 829 830 831 832 833 833 834 835 836 837 838 839 840 841 842 843 843 844 844 845 845 845 845 845 846 846 846 847 847 847 847 847 847 847
819 820 821 822 823 824 825 826 827 828 829 830 831 832 833 834 834 835 836 837 838 839 840 841 841 842 842 843 843 843 843 844 844 845 845 846 846 846 845 845 845 845
818 819 820 820 821 822 823 824 825 826 827 828 829 830 831 832 833 833 835 836 837 837 838 839 839 840 840 840 841 841 842 842 843 843 844 844 843 843 843 843 843 843
816 817 818 818 819 820 820 822 823 824 825 826 827 828 829 830 831 831 832 833 834 835 836 836 837 837 838 838 838 839 840 841 841 842 842 841 840 840 840 840 840 841
814 815 816 816 817 818 818 820 820 821 822 823 824 825 826 827 828 829 830 831 832 832 833 834 835 835 836 836 836 837 838 839 840 840 840 839 838 838 838 838 838 839
811 812 814 815 815 816 817 818 818 819 820 821 822 823 824 825 826 827 828 829 830 831 832 833 834 835 835 835 835 836 837 838 838 838 838 837 837 837 837 837 837 838
808 810 811 813 814 815 816 816 817 818 818 819 820 820 821 822 823 824 825 827 828 830 831 832 833 834 834 835 835 836 836 836 837 836 835 835 835 835 835 836 836 836
806 808 809 811 812 812 814 814 815 816 816 816 817 818 819 819 820 821 822 824 826 828 829 830 831 831 832 833 833 834 834 835 834 834 833 833 833 833 834 834 834 834
803 805 807 808 809 809 810 811 812 813 814 814 815 815 816 817 818 819 821 822 824 826 827 828 828 828 828 829 830 831 832 832 832 832 831 831 831 831 832 832 832 832
799 801 803 804 805 806 807 808 809 810 811 812 812 813 814 815 816 818 819 821 822 823 824 825 825 825 825 826 827 828 829 829 829 829 829 829 830 829 830 830 830 831
795 797 798 800 801 802 804 805 806 807 807 809 809 810 812 813 814 816 817 819 820 821 822 822 822 823 823 824 824 825 826 826 826 827 827 827 827 827 828 828 829 829
792 793 794 796 797 799 801 802 803 804 805 806 807 809 810 811 812 814 815 816 817 818 819 820 820 821 821 822 822 823 824 824 824 825 824 825 825 825 826 826 827 827
789 790 792 794 795 797 798 799 801 802 804 805 806 807 809 810 811 812 813 814 815 816 817 817 818 819 819 820 821 821 822 822 823 823 823 823 823 823 824 824 825 825
785 787 789 791 793 795 797 798 800 801 803 804 805 806 807 808 809 810 811 812 813 814 815 815 816 816 817 818 819 820 820 821 821 821 821 821 821 821 822 823 823 824
782 784 786 789 791 793 795 796 798 800 802 803 804 805 806 807 807 808 809 810 811 812 813 813 814 814 815 817 818 818 819 819 820 820 820 820 820 820 821 821 822 822
780 782 784 787 790 794 797 799 799 800 800 801 802 804 804 805 806 807 808 809 809 810 811 812 813 813 814 815 816 817 818 818 819 819 819 819 819 819 820 820 820 821
782 784 786 788 791 795 799 800 800 800 800 800 802 803 804 805 806 806 807 808 809 810 810 811 812 812 813 814 815 816 816 817 818 818 818 818 818 819 819 818 819 819
784 785 787 788 790 792 794 796 798 799 800 800 802 802 803 804 805 806 807 807 808 809 809 810 811 812 813 814 815 816 816 816 817 817 817 818 818 818 818 817 818 818
785 785 787 789 791 792 793 796 798 799 800 800 801 802 802 803 804 805 805 806 806 807 807 809 810 812 813 814 814 815 815 815 816 816 816 817 817 817 817 817 817 817